Location: Unspecified
(0.0000°N, 0.0000°E)
Time: 21:10:21
(UTC+00:00)

LAPAN A2 - Visible Passes

Search period start: 30 November 2022 00:00
Search period end: 10 December 2022 00:00
Orbit: 629 x 649 km, 6.0° (Epoch: 30 November)

Date Brightness Start Highest point End Pass type
(mag) Time Alt. Az. Time Alt. Az. Time Alt. Az.
30 Nov ? 04:26:44 36° NW 04:27:46 41° N 04:32:15 10° ENE visible
30 Nov ? 18:19:04 10° WSW 18:23:33 40° S 18:28:00 10° ESE visible
30 Nov ? 20:03:28 10° WSW 20:06:20 32° SW 20:06:20 32° SW visible
01 Dec ? 04:47:38 22° WNW 04:50:09 39° N 04:54:36 10° ENE visible
01 Dec ? 18:41:24 10° WSW 18:45:55 43° S 18:49:46 14° ESE visible
01 Dec ? 20:25:44 10° WSW 20:27:09 19° WSW 20:27:09 19° WSW visible
02 Dec ? 03:31:07 18° ENE 03:31:07 18° ENE 03:32:29 10° ENE visible
02 Dec ? 05:08:31 12° WNW 05:12:32 39° N 05:16:57 10° ENE visible
02 Dec ? 19:03:41 10° WSW 19:08:17 48° S 19:10:33 26° ESE visible
03 Dec ? 03:51:59 30° NE 03:51:59 30° NE 03:54:49 10° ENE visible
03 Dec ? 19:25:58 10° WSW 19:30:38 56° S 19:31:22 49° SE visible
04 Dec ? 04:12:50 39° N 04:12:50 39° N 04:17:11 10° ENE visible
04 Dec ? 19:48:14 10° WSW 19:52:09 55° SW 19:52:09 55° SW visible
05 Dec ? 04:33:40 32° NW 04:35:09 41° N 04:39:36 10° ENE visible
05 Dec ? 18:26:10 10° WSW 18:30:52 56° S 18:35:32 10° E visible
05 Dec ? 20:10:31 10° W 20:12:56 30° WSW 20:12:56 30° WSW visible
06 Dec ? 03:17:06 12° ENE 03:17:06 12° ENE 03:17:26 10° ENE visible
06 Dec ? 04:54:30 19° WNW 04:57:31 45° N 05:02:02 10° ENE visible
06 Dec ? 18:48:26 10° WSW 18:53:12 68° S 18:56:20 21° E visible
06 Dec ? 20:32:50 10° W 20:33:43 15° W 20:33:43 15° W visible
07 Dec ? 03:37:55 22° ENE 03:37:55 22° ENE 03:39:51 10° ENE visible
07 Dec ? 05:15:19 10° WNW 05:19:52 52° N 05:24:28 10° E visible
07 Dec ? 19:10:44 10° W 19:15:32 82° S 19:17:07 42° E visible
08 Dec ? 03:58:44 40° NE 03:58:44 40° NE 04:02:16 10° ENE visible
08 Dec ? 19:33:03 10° W 19:37:52 82° N 19:37:54 82° N visible
09 Dec ? 04:19:32 49° NNW 04:20:07 53° N 04:24:42 10° E visible
09 Dec ? 18:10:56 10° W 18:15:46 83° S 18:20:32 10° E visible
09 Dec ? 19:55:25 10° W 19:58:41 42° WNW 19:58:41 42° WNW visible
